Location: Unspecified
(0.0000°N, 0.0000°E)
Time: 21:16:40
(UTC+00:00)

Transit 4A - Pass Details

Date: 04 June 2022
Orbit: 864 x 980 km, 66.8° (Epoch: 26 June)

Event Time Altitude Azimuth Distance (km) Brightness Sun altitude
Rises 10:45:37 0° 15° (NNE) 3,529 11.3 61.4°
Reaches altitude 10° 10:49:32 10° 40° (NE) 2,565 10.8 62.0°
Maximum altitude 10:52:25 14° 69° (ENE) 2,286 10.5 62.4°
Drops below altitude 10° 10:55:15 10° 98° (E) 2,536 10.5 62.8°
Sets 10:59:04 0° 123° (ESE) 3,460 10.9 63.3°
